Location: Unspecified
(0.0000°N, 0.0000°E)
Time: 13:55:34
(UTC+00:00)

Envisat - Pass Details

Date: 12 September 2019
Orbit: 764 x 766 km, 98.1° (Epoch: 18 September)

Event Time Altitude Azimuth Distance (km) Brightness Sun altitude
Rises 19:06:50 0° 183° (S) 3,231 6.2 -17.6°
Reaches altitude 10° 19:09:17 10° 191° (S) 2,302 5.6 -18.2°
Maximum altitude 19:13:56 37° 258° (WSW) 1,172 4.5 -19.4°
Drops below altitude 10° 19:18:34 10° 325° (NW) 2,292 6.0 -20.5°
Sets 19:21:01 0° 333° (NNW) 3,215 6.7 -21.1°
